Regional Weather Roundup
Issued by NWS

Home | Current Version | Previous Version | Text Only | Print | Product List | Glossary Off
Versions: 1 2 3 4 5 6 7 8 9 10 11 12 13 14 15 16 17 18 19 20 21 22 23 24 25 26 27 28 29 30 31 32 33 34 35 36 37 38 39 40 41 42 43 44 45 46 47 48 49 50

000
ASUS43 KIND 291059
RWRIN

WEATHER ROUNDUP FOR INDIANA
NATIONAL WEATHER SERVICE INDIANAPOLIS IN
700 AM EDT WED MAR 29 2017

NOTE: "FAIR" INDICATES FEW OR NO CLOUDS BELOW 12,000 FEET WITH NO
SIGNIFICANT WEATHER AND/OR OBSTRUCTIONS TO VISIBILITY.

* - STATION DOES NOT REPORT WEATHER SUCH AS PRECIPITATION OR FOG.

+ - STATION NOT QUALITY CONTROLLED BY THE NATIONAL WEATHER SERVICE.
    USE DATA WITH CAUTION...ESPECIALLY DEWPOINT AND RELATIVE
    HUMIDITY OBSERVATIONS.

INZ001>003-010>013-019-020-291200-
NORTHWEST INDIANA

CITY           SKY/WX    TMP DP  RH WIND       PRES   REMARKS
GARY /AIRPORT/ FOG       36  36 100 NE6       30.23S VSB 1/2
KNOX *+        CLEAR     34  30  86 NE6       30.21S WCI  29
MONTICELLO +   PTCLDY    43  39  85 E6        30.18S

$$

LMZ046-743>745-291200-
SOUTHERN LAKE MICHIGAN

STATION/POSITION TIME  TEMP    WIND        PRES    WAVE
                       AIR SEA DIR/SP/G            HT
                 (UTC) (F)     (DEG/KT/KT) (MB)    (FT)
BURNS HARBOR     1040   36      70/  8/ 11 1024.0R
MICHIGAN CITY    1030   37      70/  5/  6   N/A

$$

INZ004-005-014>016-021>024-291200-
NORTH CENTRAL INDIANA

CITY           SKY/WX    TMP DP  RH WIND       PRES   REMARKS
ELKHART        CLEAR     36  32  87 E6        30.23
GOSHEN         CLEAR     36  31  82 E8        30.22R
SOUTH BEND     CLEAR     34  33  96 E3        30.23R

$$

INZ006>009-017-018-025>027-291200-
NORTHEAST INDIANA

CITY           SKY/WX    TMP DP  RH WIND       PRES   REMARKS
ANGOLA *+      CLEAR     32  32 100 E5        30.23R WCI  27
FORT WAYNE     PTCLDY    36  32  85 E7        30.23R
KENDALLVILLE + CLEAR     33  32  96 E5        30.23R WCI  28

$$

INZ028-029-035-036-043>045-051>053-291200-
WEST CENTRAL INDIANA

CITY           SKY/WX    TMP DP  RH WIND       PRES   REMARKS
CRAWFORDSVL +  CLOUDY    44  44 100 NE10      30.14F FOG
GREENCASTLE +  CLOUDY    46  43  87 E9        30.14S
LAFAYETTE      CLOUDY    45  42  89 E13       30.17S
TERRE HAUTE    CLOUDY    50  45  83 E9        30.12S

$$

INZ030>032-037>040-046>048-054>057-064-065-291200-
CENTRAL INDIANA

CITY           SKY/WX    TMP DP  RH WIND       PRES   REMARKS
COLUMBUS       CLOUDY    48  46  93 NE9       30.15
INDIANAPOLIS   DRIZZLE   48  43  82 E15       30.15R
-EAGLE CREEK   CLOUDY    47  43  86 NE8       30.15S
KOKOMO +       CLEAR     41  39  93 E8        30.20R
SHELBYVILLE    CLOUDY    48  41  76 E17       30.15S

$$

INZ033-034-041-042-049-050-058-059-291200-
EAST CENTRAL INDIANA

CITY           SKY/WX    TMP DP  RH WIND       PRES   REMARKS
MUNCIE         CLEAR     43  39  86 E8        30.19R
RICHMOND +     CLOUDY    41  36  81 E10       30.18R

$$

INZ060-061-067>069-081>083-085>088-291200-
SOUTHWEST INDIANA

CITY           SKY/WX    TMP DP  RH WIND       PRES   REMARKS
EVANSVILLE     CLEAR     50  46  86 NE8       30.07F
HUNTINGBURG *+ CLEAR     49  47  93 E6        30.09F

$$

INZ062-063-066-070>080-084-089>092-291200-
SOUTH CENTRAL AND SOUTHEAST INDIANA

CITY           SKY/WX    TMP DP  RH WIND       PRES   REMARKS
BLOOMINGTON    CLOUDY    51  44  77 E9        30.12S
MADISON *+     CLOUDY    50  45  81 NE7       30.15R
SEYMOUR +      CLOUDY    52  46  82 E7        30.13S

$$





USA.gov is the U.S. government's official web portal to all federal, state and local government web resources and services.